Location: Boiro
(42.6475°N, 8.8834°W)
Time: 12:54:54
(UTC+01:00)

Vanguard 1 Rocket - Pass Details

Date: 08 December 2021
Orbit: 651 x 4224 km, 34.3° (Epoch: 21 January)

Event Time Altitude Azimuth Distance (km) Brightness Sun altitude
Exits shadow 02:38:56 18° 96° (E) 4,318 10.8 -65.1°
Drops below altitude 10° 02:42:48 10° 88° (E) 5,419 11.5 -64.6°
Sets 02:48:40 0° 83° (E) 7,042 12.2 -63.9°
